Погода в Натырбово

Россия / Республика Адыгея     44°43′51″N   40°37′17″E
темп.,
°C
ветер,
м/с
пор.,
м/с
влажн.,
%
обл.,
%
осадки,
мм/ч
давл.,
гПа
погр.,
м
21 июня, пн
пн2100:00+20ююв22830 0.4 101111
03:00+19вюв22900 0.4 101112
06:00+21в12900 0.0 101069
09:00+25св22765 0.0 1010477
12:00+29всв446545 0.0 10091126
15:00+29в565727 0.0 10081087
18:00+26в347682 0.1 100967
21:00+23вюв498173 0.1 1009156
22 июня, вт
вт2200:00+23вюв612561 0.0 1009229
03:00+18вюв22650 0.0 101027
06:00+18в12780 0.0 101070
09:00+24з22680 0.0 1009497
12:00+28сз11570 0.0 1009863
15:00+27ссв3462100 0.0 1009261
18:00+28зюз016099 0.0 1011212
21:00+23ююв347394 0.1 101160
23 июня, ср
ср2300:00+20юв45811 0.3 101274
03:00+19юз11905 0.3 101211
06:00+19з359369 0.0 1013152
09:00+24зсз44742 0.0 1013615
12:00+28ссз33550 0.0 10121162
15:00+29сз225032 0.0 10121462
18:00+29юз11575 0.0 10111048
21:00+23ююв22700 0.0 101217
24 июня, чт
чт2400:00+21ююв22755 0.0 101212
03:00+20зюз3794100 0.0 1013148
06:00+20з369395 0.1 1014247
09:00+24зсз4477100 0.1 1014655
12:00+26ссз446894 0.1 10141190
15:00+28ссз22558 0.1 10131417
18:00+27сз11570 0.0 10131070
21:00+22ссз11710 0.0 101311
25 июня, пт
пт2500:00+21ююз11790 0.0 101311
03:00+19юз22906 0.0 101220
06:00+21з2489100 0.0 1013168
09:00+23зсз347662 0.0 1014609
12:00+27сз436241 0.0 10131134
15:00+28ссз2255100 0.0 10121372
18:00+28ссз226168 0.0 10121025
21:00+23сз117714 0.2 101211